Simultaneous Nadir Overpasses (SNOs) Predictions

Prediction of SNOs between NOAA-20 and AQUA Satellite Orbit:

Table of predicted SNOs for the next 14.0 days since TLE Epoch: 2/7/2020
Index Date (NOAA-20) Time (NOAA-20) Lat,Lon (NOAA-20) SZA (NOAA-20 ) Date (AQUA) Time (AQUA) Lat,Lon (AQUA) SZA (AQUA ) Distance(km) Time Diff (sec)
1 02/09/2020 05:56:39 75.29, -32.25 113.26 02/09/2020 05:57:11 75.29, -32.19 113.21 1.68 32
2 02/09/2020 06:46:57 -76.58, 139.41 68.31 02/09/2020 06:46:13 -76.57, 139.35 68.26 1.54 44
3 02/11/2020 22:13:25 75.74, 84.95 111.87 02/11/2020 22:13:32 75.75, 84.98 111.85 1.09 7
4 02/11/2020 23:03:46 -76.87,-103.65 69.53 02/11/2020 23:02:37 -76.87,-103.73 69.45 2.23 69
5 02/14/2020 13:39:49 -75.23, 31.79 68.39 02/14/2020 13:40:49 -75.22, 31.70 68.42 2.66 60
6 02/14/2020 14:30:13 76.15,-157.92 110.51 02/14/2020 14:29:55 76.15,-157.92 110.52 0.07 18
7 02/17/2020 05:56:46 -75.21, 147.53 69.28 02/17/2020 05:57:20 -75.22, 147.59 69.33 2.06 34
8 02/17/2020 06:47:01 76.54, -40.72 109.11 02/17/2020 06:46:18 76.54, -40.77 109.16 1.38 43
9 02/19/2020 22:13:32 -75.72, -95.15 70.81 02/19/2020 22:13:41 -75.72, -95.13 70.82 0.54 9




NCC Satellite Simultaneous Nadir Overpasses (SNOs) Prediction Service
